National Weather Service Raw Text Product

Displaying AFOS PIL: RWRIA Received: 2018-01-12 05:00 UTC


476 
ASUS43 KDMX 120506
RWRIA 

WEATHER ROUNDUP FOR IOWA
NATIONAL WEATHER SERVICE DES MOINES IA
1100 PM CST THU JAN 11 2018

NOTE: "FAIR" INDICATES FEW OR NO CLOUDS BELOW 12,000 FEET WITH NO
SIGNIFICANT WEATHER AND/OR OBSTRUCTIONS TO VISIBILITY.

* - THESE STATIONS ARE NOT NWS STATIONS...THUS NOT UNDER NWS
QUALITY CONTROL.  THEY ALSO DO NOT REPORT WEATHER SUCH 
AS PRECIPITATION OR FOG.  

IAZ001>003-012>014-020>022-031>034-043>046-120600-
   NORTHWEST IOWA
  
CITY           SKY/WX    TMP DP  RH WIND       PRES   REMARKS
CARROLL *      FLURRIES   5  -4  66 N21G26    30.25R WCI -16          
CHEROKEE *     CLOUDY     2  -6  70 N13G24    30.31R WCI -16          
DENISON *      CLOUDY     5  -4  66 NW20      30.30R WCI -15          
LE MARS *      CLEAR      3  -6  66 N12G20    30.34R WCI -13          
ORANGE CITY *  CLOUDY     1  -6  71 N13G21    30.30F WCI -16          
SHELDON *      CLOUDY     0  -9  65 N21G26    30.30R WCI -23          
SIOUX CITY     CLEAR      3  -6  66 NW18      30.35R WCI -17          
SPENCER        CLOUDY    -1 -10  65 NW21G29   30.28R WCI -24          
STORM LAKE *   CLEAR      1  -6  71 NW16      30.26R WCI -18          
$$
 
IAZ055>058-069>071-079>083-090>094-120600-
   SOUTHWEST IOWA
  
CITY           SKY/WX    TMP DP  RH WIND       PRES   REMARKS
ATLANTIC *     CLOUDY     7  -2  66 NW16G23   30.26R WCI -11          
AUDUBON *      CLOUDY     5  -2  72 NW15G21   30.24S WCI -13          
CLARINDA *     CLOUDY     9   1  72 N17       30.29S WCI -10          
COUNCIL BLFS * CLOUDY     7   1  78 NW16G23   30.29R WCI -11          
CRESTON *      CLOUDY     7   1  78 N21G31    30.22R WCI -13          
HARLAN  *      CLOUDY     5  -2  72 NW17G25   30.31R WCI -14          
LAMONI         CLOUDY    10   4  76 NW14      30.18S HAZE    WCI  -6  
RED OAK *      CLOUDY     9   0  66 N16       30.29R WCI  -9          
SHENANDOAH *   CLOUDY     9   1  72 N14G24    30.31R WCI  -8          
$$
 
IAZ047>049-059>061-072>074-084-120600-
   CENTRAL IOWA
  
CITY           SKY/WX    TMP DP  RH WIND       PRES   REMARKS
AMES           CLOUDY     4  -2  76 N22G30    30.22R WCI -18          
ANKENY *       CLOUDY     5  -2  72 NW18G30   30.24R WCI -15          
BOONE *        CLOUDY     3  -4  72 NW21G30   30.20R WCI -18          
CHARITON *     PTCLDY     7   0  72 NW23G30   30.16S WCI -14          
DES MOINES     FLURRIES   7   0  73 NW15G25   30.22R WCI -10          
GRINNELL*      CLOUDY     5   1  83 NW23G29   30.15S WCI -17          
KNOXVILLE *    CLOUDY     7  -2  66 NW20      30.17R WCI -13          
MARSHALLTOWN   CLOUDY     4  -2  76 NW22G35   30.17S WCI -18          
NEWTON *       CLOUDY     5   0  78 NW21G29   30.18S WCI -16          
PELLA *        CLOUDY     7   0  72 NW18G32   30.18S WCI -12          
PERRY *          N/A      5  -3  70 NW20      30.25R WCI -15          
$$
 
IAZ004>006-015-016-023>025-035-036-120600-
   NORTH CENTRAL IOWA
  
CITY           SKY/WX    TMP DP  RH WIND       PRES   REMARKS
ALGONA *       CLOUDY     0 N/A N/A N18G30    30.22R WCI -22          
CLARION *      CLOUDY     0  -6  78 N20G31    30.21R WCI -22          
ESTHERVILLE    CLOUDY    -4 -10  75 NW24      30.25R WCI -29          
FORT DODGE *   CLOUDY     1  -7  68 NW18G29   30.23R WCI -20          
MASON CITY     CLOUDY    -2  -8  76 NW21G31   30.19R WCI -25          
FOREST CITY *    N/A      0  -6  78 N17       30.20R WCI -21          
WEBSTER CITY * CLOUDY     1  -6  71 NW25      30.20R WCI -22          
IOWA FALLS *     N/A      2  -3  77 NW18G24   30.19R WCI -18          
$$

IAZ007>011-017>019-026>030-037>042-050>054-066-120600-
   NORTHEAST IOWA
  
CITY           SKY/WX    TMP DP  RH WIND       PRES   REMARKS
CEDAR RAPIDS   CLOUDY    10   3  73 NW23G29   30.07S WCI -10          
CHARLES CITY * CLOUDY     3   1  92 NW17      30.14R WCI -17          
CLINTON *      CLOUDY    12   7  80 NW25      30.03R WCI  -8          
DECORAH *      MOCLDY     7   1  78 NW16G25   30.07R WCI -11          
DUBUQUE        CLOUDY    10   3  73 N18G28    30.00R WCI  -8          
MONTICELLO *   CLOUDY    10   3  72 NW17G24   30.05S WCI  -7          
OELWEIN *      MOCLDY     9   5  85 NW23G30   30.09R WCI -12          
WATERLOO         N/A      4  -1  80 NW15      30.13S WCI -14          
$$
 
IAZ064-065-067-068-078-120600-
   EAST CENTRAL IOWA
  
CITY           SKY/WX    TMP DP  RH WIND       PRES   REMARKS
DAVENPORT      MOCLDY    12   5  73 NW22G28   30.06R WCI  -7          
IOWA CITY      CLOUDY    11   2  67 NW15G26   30.11R WCI  -5          
MT. PLEASANT * CLOUDY    10   3  72 NW12G21   30.11F WCI  -4          
MUSCATINE *    CLOUDY    10   5  79 NW14G22   30.11F WCI  -5          
$$
 
IAZ062-063-075>077-085>089-095>099-120600-
   SOUTHEAST IOWA
  
CITY           SKY/WX    TMP DP  RH WIND       PRES   REMARKS
BURLINGTON     MOCLDY    10   2  69 NW15G22   30.09S WCI  -7          
FAIRFIELD *    CLOUDY    10   0  61 NW20G30   30.13R WCI  -8          
FORT MADISON * CLOUDY     9   3  78 NW14G29   30.11S WCI  -8          
KEOKUK *       CLOUDY    10   3  72 NW15G25   30.12R WCI  -6          
OSKALOOSA *      N/A      8   1  75 NW25G33   30.15R WCI -14          
OTTUMWA        CLOUDY     9   2  73 NW25G35   30.14R WCI -12          
WASHINGTON *   CLOUDY    10   3  72 NW22G29   30.13R WCI  -9          
$$

ABBREVIATIONS USED IN REMARKS
   TC - TEMPERATURES IN CELSIUS
  WCI - WIND CHILL INDEX
   HX - HEAT INDEX
  VSB - VISIBILITY  
$$

  

757 
ASUS43 KDMX 120501
RWRIA 

WEATHER ROUNDUP FOR IOWA
NATIONAL WEATHER SERVICE DES MOINES IA
1100 PM CST THU JAN 11 2018

NOTE: "FAIR" INDICATES FEW OR NO CLOUDS BELOW 12,000 FEET WITH NO
SIGNIFICANT WEATHER AND/OR OBSTRUCTIONS TO VISIBILITY.

* - THESE STATIONS ARE NOT NWS STATIONS...THUS NOT UNDER NWS
QUALITY CONTROL.  THEY ALSO DO NOT REPORT WEATHER SUCH 
AS PRECIPITATION OR FOG.  

IAZ001>003-012>014-020>022-031>034-043>046-120600-
   NORTHWEST IOWA
  
CITY           SKY/WX    TMP DP  RH WIND       PRES   REMARKS
CARROLL *      FLURRIES   5  -4  66 N21G26    30.25R WCI -16          
CHEROKEE *     CLOUDY     2  -6  70 N13G24    30.31R WCI -16          
DENISON *      CLOUDY     5  -4  66 NW20      30.30R WCI -15          
LE MARS *      CLEAR      3  -6  66 N12G20    30.34R WCI -13          
ORANGE CITY *  CLOUDY     1  -6  71 N13G21    30.30F WCI -16          
SHELDON *      CLOUDY     0  -9  65 N21G26    30.30R WCI -23          
SIOUX CITY     CLEAR      3  -6  66 NW18      30.35R WCI -17          
SPENCER        CLOUDY    -1 -10  65 NW21G29   30.28R WCI -24          
STORM LAKE *   CLEAR      1  -6  71 NW16      30.26R WCI -18          
$$
 
IAZ055>058-069>071-079>083-090>094-120600-
   SOUTHWEST IOWA
  
CITY           SKY/WX    TMP DP  RH WIND       PRES   REMARKS
ATLANTIC *     CLOUDY     7  -2  66 NW16G23   30.26R WCI -11          
AUDUBON *      CLOUDY     5  -2  72 NW15G21   30.24S WCI -13          
CLARINDA *     CLOUDY     9   1  72 N17       30.29S WCI -10          
COUNCIL BLFS * CLOUDY     7   1  78 NW16G23   30.29R WCI -11          
CRESTON *      CLOUDY     7   1  78 N21G31    30.22R WCI -13          
HARLAN  *      CLOUDY     5  -2  72 NW17G25   30.31R WCI -14          
LAMONI         CLOUDY    10   4  76 NW14      30.18S HAZE    WCI  -6  
RED OAK *      CLOUDY     9   0  66 N16       30.29R WCI  -9          
SHENANDOAH *   CLOUDY     9   1  72 N14G24    30.31R WCI  -8          
$$
 
IAZ047>049-059>061-072>074-084-120600-
   CENTRAL IOWA
  
CITY           SKY/WX    TMP DP  RH WIND       PRES   REMARKS
AMES           CLOUDY     4  -2  76 N22G30    30.22R WCI -18          
ANKENY *       CLOUDY     5  -2  72 NW18G30   30.24R WCI -15          
BOONE *        CLOUDY     3  -4  72 NW21G30   30.20R WCI -18          
CHARITON *     PTCLDY     7   0  72 NW23G30   30.16S WCI -14          
DES MOINES     FLURRIES   7   0  73 NW15G25   30.22R WCI -10          
GRINNELL*      CLOUDY     5   1  83 NW23G29   30.15S WCI -17          
KNOXVILLE *    CLOUDY     7  -2  66 NW20      30.17R WCI -13          
MARSHALLTOWN   CLOUDY     4  -2  76 NW22G35   30.17S WCI -18          
NEWTON *       CLOUDY     5   0  78 NW21G29   30.18S WCI -16          
PELLA *        CLOUDY     7   0  72 NW18G32   30.18S WCI -12          
PERRY *          N/A      5  -3  70 NW20      30.25R WCI -15          
$$
 
IAZ004>006-015-016-023>025-035-036-120600-
   NORTH CENTRAL IOWA
  
CITY           SKY/WX    TMP DP  RH WIND       PRES   REMARKS
ALGONA *       CLOUDY     0 N/A N/A N18G30    30.22R WCI -22          
CLARION *      CLOUDY     0  -6  78 N20G31    30.21R WCI -22          
ESTHERVILLE    CLOUDY    -4 -10  75 NW24      30.25R WCI -29          
FORT DODGE *   CLOUDY     1  -7  68 NW18G29   30.23R WCI -20          
MASON CITY     CLOUDY    -2  -8  76 NW21G31   30.19R WCI -25          
FOREST CITY *    N/A      0  -6  78 N17       30.20R WCI -21          
WEBSTER CITY * CLOUDY     1  -6  71 NW25      30.20R WCI -22          
IOWA FALLS *     N/A      3  -3  78 NW16G25   30.18R WCI -16          
$$

IAZ007>011-017>019-026>030-037>042-050>054-066-120600-
   NORTHEAST IOWA
  
CITY           SKY/WX    TMP DP  RH WIND       PRES   REMARKS
CEDAR RAPIDS   CLOUDY    10   3  73 NW23G29   30.07S WCI -10          
CHARLES CITY * CLOUDY     3   1  92 NW17      30.14R WCI -17          
CLINTON *      CLOUDY    12   7  80 NW25      30.03R WCI  -8          
DECORAH *      MOCLDY     7   1  78 NW16G25   30.07R WCI -11          
DUBUQUE        CLOUDY    10   3  73 N18G28    30.00R WCI  -8          
MONTICELLO *   CLOUDY    10   3  72 NW17G24   30.05S WCI  -7          
OELWEIN *      MOCLDY     9   5  85 NW23G30   30.09R WCI -12          
WATERLOO         N/A      4  -1  80 NW15      30.13S WCI -14          
$$
 
IAZ064-065-067-068-078-120600-
   EAST CENTRAL IOWA
  
CITY           SKY/WX    TMP DP  RH WIND       PRES   REMARKS
DAVENPORT      MOCLDY    12   5  73 NW22G28   30.06R WCI  -7          
IOWA CITY      CLOUDY    11   2  67 NW15G26   30.11R WCI  -5          
MT. PLEASANT * CLOUDY    10   3  72 NW12G21   30.11F WCI  -4          
MUSCATINE *    CLOUDY    10   5  79 NW14G22   30.11F WCI  -5          
$$
 
IAZ062-063-075>077-085>089-095>099-120600-
   SOUTHEAST IOWA
  
CITY           SKY/WX    TMP DP  RH WIND       PRES   REMARKS
BURLINGTON     MOCLDY    10   2  69 NW15G22   30.09S WCI  -7          
FAIRFIELD *    CLOUDY    10   0  61 NW20G30   30.13R WCI  -8          
FORT MADISON * CLOUDY     9   3  78 NW14G29   30.11S WCI  -8          
KEOKUK *       CLOUDY    10   3  72 NW15G25   30.12R WCI  -6          
OSKALOOSA *      N/A      8   1  75 NW25G33   30.15R WCI -14          
OTTUMWA        CLOUDY    10   2  69 NW26G35   30.15R WCI -11          
WASHINGTON *   CLOUDY    10   3  72 NW22G29   30.13R WCI  -9          
$$

ABBREVIATIONS USED IN REMARKS
   TC - TEMPERATURES IN CELSIUS
  WCI - WIND CHILL INDEX
   HX - HEAT INDEX
  VSB - VISIBILITY  
$$